NI4CE-10 Weather Reports


time (UTC)temp
C
wind
direction
speed
KPH
gust
KPH
rain 1hr
cm
rain 24hr
cm
rain mn
cm
humidity
%
barometer
mb
20260904024247 25 118 0.0 4.8 0.00 0.28 0.18 100 1016.0
20260904023747 25 150 3.2 6.4 0.00 0.28 0.18 100 1016.0
20260904023247 25 177 0.0 0.0 0.00 0.28 0.18 100 1016.0
20260904022747 25 177 0.0 0.0 0.00 0.28 0.18 100 1016.0
20260904022247 25 177 0.0 0.0 0.00 0.28 0.18 100 1016.1
20260904021747 25 177 0.0 4.8 0.00 0.28 0.18 100 1016.1
20260904021247 25 182 0.0 6.4 0.00 0.28 0.18 100 1016.3
20260904021052 25 150 3.2 6.4 0.00 0.28 0.18 100 1016.4
20260904020747 25 150 3.2 6.4 0.00 0.28 0.18 100 1016.4
20260904020247 25 171 0.0 9.7 0.00 0.30 0.18 100 1016.4
20260904015747 25 102 6.4 14.5 0.00 0.30 0.18 100 1016.3
20260904015612 25 126 3.2 12.9 0.00 0.30 0.18 100 1016.2
20260904015247 25 126 3.2 12.9 0.00 0.30 0.18 100 1016.2
20260904014958 25 150 6.4 14.5 0.00 0.30 0.18 100 1016.3
20260904014747 25 150 6.4 14.5 0.00 0.30 0.18 100 1016.3
20260904014504 26 123 0.0 9.7 0.00 0.30 0.18 100 1016.3
20260904014247 26 123 0.0 9.7 0.00 0.30 0.18 100 1016.3
20260904013747 26 133 4.8 12.9 0.00 0.30 0.18 100 1016.3
20260904013505 26 113 4.8 12.9 0.00 0.30 0.18 100 1016.2
20260904013247 26 113 4.8 12.9 0.00 0.30 0.18 100 1016.2
20260904013031 26 98 8.0 11.3 0.00 0.30 0.18 100 1016.1
20260904012747 26 98 8.0 11.3 0.00 0.30 0.18 100 1016.1
20260904012247 26 106 9.7 9.7 0.00 0.30 0.18 100 1016.2
20260904012128 26 80 4.8 8.0 0.00 0.30 0.18 100 1016.2
20260904011747 26 80 4.8 8.0 0.00 0.30 0.18 100 1016.2
20260904011247 26 129 3.2 11.3 0.00 0.30 0.18 100 1016.1
20260904010747 26 92 4.8 8.0 0.00 0.30 0.18 100 1016.2
20260904010247 26 136 8.0 11.3 0.00 0.30 0.18 100 1016.1
20260904005747 26 126 4.8 9.7 0.00 0.30 0.18 100 1016.0
20260904005247 26 95 4.8 4.8 0.00 0.30 0.18 100 1015.9
20260904005013 26 59 0.0 0.0 0.00 0.30 0.18 100 1015.8
20260904004747 26 59 0.0 0.0 0.00 0.30 0.18 100 1015.8
20260904004247 26 59 0.0 0.0 0.00 0.30 0.18 100 1015.8
20260904003747 26 59 0.0 4.8 0.00 0.30 0.18 100 1015.6
20260904003247 26 53 0.0 6.4 0.00 0.30 0.18 100 1015.4
20260904002820 26 108 1.6 8.0 0.00 0.30 0.18 100 1015.5
20260904002747 26 108 1.6 8.0 0.00 0.30 0.18 100 1015.5
20260904002247 26 99 4.8 9.7 0.00 0.30 0.18 100 1015.6
20260904002053 26 70 3.2 8.0 0.00 0.30 0.18 100 1015.5
20260904001747 26 70 3.2 8.0 0.00 0.30 0.18 100 1015.5
20260904001531 26 75 3.2 6.4 0.00 0.30 0.18 100 1015.5
20260904001247 26 75 3.2 6.4 0.00 0.30 0.18 100 1015.5
20260904000747 26 80 6.4 6.4 0.00 0.30 0.18 100 1015.5
20260904000422 26 75 3.2 4.8 0.00 0.33 0.18 100 1015.4
20260904000248 26 75 3.2 4.8 0.00 0.33 0.18 100 1015.4
20260903235747 26 67 3.2 6.4 0.00 0.33 0.18 100 1015.5
20260903235248 26 102 3.2 4.8 0.00 0.33 0.18 100 1015.4
20260903234748 26 108 1.6 4.8 0.00 0.33 0.18 100 1015.5
20260903234248 27 153 1.6 1.6 0.00 0.33 0.18 100 1015.4
20260903233748 27 147 0.0 1.6 0.00 0.33 0.18 100 1015.4
20260903233248 27 189 0.0 6.4 0.00 0.33 0.18 100 1015.4
20260903232748 27 168 4.8 6.4 0.00 0.33 0.18 100 1015.3
20260903232248 26 140 1.6 6.4 0.00 0.33 0.18 100 1015.3
20260903232058 27 170 3.2 12.9 0.00 0.33 0.18 100 1015.3
20260903231748 27 170 3.2 12.9 0.00 0.33 0.18 100 1015.3
20260903231248 27 243 8.0 11.3 0.00 0.33 0.18 100 1015.5
20260903231034 27 236 6.4 9.7 0.00 0.33 0.18 100 1015.5
20260903230748 27 236 6.4 9.7 0.00 0.33 0.18 100 1015.5
20260903230248 27 168 0.0 0.0 0.00 0.33 0.18 100 1015.3
20260903230020 27 168 0.0 0.0 0.00 0.36 0.18 100 1015.4
20260903225748 27 168 0.0 0.0 0.00 0.36 0.18 100 1015.4
20260903225248 27 175 0.0 4.8 0.00 0.36 0.18 100 1015.4
20260903224748 27 154 0.0 0.0 0.00 0.36 0.18 100 1015.4
20260903224248 27 154 0.0 3.2 0.00 0.36 0.18 100 1015.2
20260903223748 27 195 3.2 3.2 0.00 0.36 0.18 100 1015.2
20260903223527 27 168 1.6 4.8 0.00 0.36 0.18 100 1015.1
20260903223248 27 168 1.6 4.8 0.00 0.36 0.18 100 1015.1
20260903222955 28 206 4.8 6.4 0.00 0.36 0.18 100 1015.1
20260903222748 28 206 4.8 6.4 0.00 0.36 0.18 100 1015.1
20260903222248 27 225 6.4 9.7 0.00 0.36 0.18 100 1014.9
20260903221748 28 213 4.8 8.0 0.00 0.36 0.18 100 1014.9
20260903221506 28 241 3.2 11.3 0.00 0.36 0.18 100 1014.7
20260903221248 28 241 3.2 11.3 0.00 0.36 0.18 100 1014.7
20260903220748 28 161 6.4 6.4 0.00 0.36 0.18 100 1014.6
20260903220248 28 237 1.6 4.8 0.00 0.36 0.18 100 1014.4
20260903215748 28 181 3.2 4.8 0.00 0.36 0.18 100 1014.5
20260903215248 28 108 0.0 3.2 0.00 0.36 0.18 100 1014.4
20260903214948 28 88 0.0 6.4 0.00 0.36 0.18 100 1014.4
20260903214748 28 88 0.0 6.4 0.00 0.36 0.18 100 1014.4
20260903214533 28 137 3.2 4.8 0.00 0.36 0.18 100 1014.4
20260903214248 28 137 3.2 4.8 0.00 0.36 0.18 100 1014.4
20260903213748 28 122 3.2 4.8 0.00 0.36 0.18 100 1014.3
20260903213539 28 163 4.8 4.8 0.00 0.36 0.18 100 1014.2
20260903213248 28 163 4.8 4.8 0.00 0.36 0.18 100 1014.2
20260903213047 28 94 1.6 4.8 0.00 0.36 0.18 100 1014.1
20260903212748 28 94 1.6 4.8 0.00 0.36 0.18 100 1014.1
20260903212626 28 99 4.8 4.8 0.00 0.36 0.18 100 1014.1
20260903212248 28 99 4.8 4.8 0.00 0.36 0.18 100 1014.1
20260903211748 28 78 0.0 0.0 0.00 0.36 0.18 100 1014.0
20260903211248 28 78 0.0 0.0 0.00 0.36 0.18 100 1014.0
20260903211116 28 78 0.0 0.0 0.00 0.36 0.18 100 1013.9
20260903210748 28 78 0.0 0.0 0.00 0.36 0.18 100 1013.9
20260903210248 28 78 0.0 0.0 0.00 0.36 0.18 100 1014.1
20260903210119 28 78 0.0 0.0 0.00 0.36 0.18 100 1014.1
20260903205748 28 78 0.0 0.0 0.00 0.36 0.18 100 1014.1
20260903205716 28 78 0.0 3.2 0.00 0.36 0.18 100 1014.1
20260903205248 28 78 0.0 3.2 0.00 0.36 0.18 100 1014.1
20260903205101 28 67 1.6 6.4 0.00 0.36 0.18 100 1014.3
20260903204748 28 67 1.6 6.4 0.00 0.36 0.18 100 1014.3
20260903204248 28 87 0.0 3.2 0.00 0.36 0.18 100 1014.3
20260903203950 29 74 3.2 3.2 0.03 0.36 0.18 100 1014.5
20260903203748 29 74 3.2 3.2 0.03 0.36 0.18 100 1014.5
20260903203248 29 66 0.0 1.6 0.03 0.36 0.18 100 1014.5
20260903203035 29 150 1.6 3.2 0.03 0.36 0.18 100 1014.5
20260903202748 29 150 1.6 3.2 0.03 0.36 0.18 100 1014.5
20260903202657 29 139 0.0 4.8 0.03 0.36 0.18 100 1014.5
20260903202248 29 139 0.0 4.8 0.03 0.36 0.18 100 1014.5
20260903202119 30 225 4.8 4.8 0.03 0.36 0.18 100 1014.5
20260903201748 30 225 4.8 4.8 0.03 0.36 0.18 100 1014.5
20260903201536 30 203 0.0 1.6 0.03 0.36 0.18 100 1014.6
20260903201248 30 203 0.0 1.6 0.03 0.36 0.18 100 1014.6
20260903200748 30 219 0.0 4.8 0.03 0.36 0.18 100 1014.7
20260903200249 30 310 0.0 0.0 0.03 0.36 0.18 100 1014.7
20260903195749 30 310 0.0 0.0 0.03 0.36 0.18 100 1014.7
20260903195248 29 310 0.0 4.8 0.03 0.36 0.18 100 1014.8
20260903194749 29 271 1.6 4.8 0.03 0.36 0.18 100 1014.9
20260903194608 29 326 0.0 4.8 0.05 0.36 0.18 100 1014.9
20260903194249 29 326 0.0 4.8 0.05 0.36 0.18 100 1014.9
20260903193749 29 293 1.6 4.8 0.10 0.33 0.15 100 1015.0
20260903193249 29 295 0.0 0.0 0.10 0.33 0.15 100 1015.0
20260903193128 30 295 0.0 4.8 0.13 0.33 0.15 100 1015.0
20260903192749 30 295 0.0 4.8 0.13 0.33 0.15 100 1015.0
20260903192619 30 271 0.0 0.0 0.13 0.33 0.15 100 1015.0
20260903192249 30 271 0.0 0.0 0.13 0.33 0.15 100 1015.0
20260903192138 30 271 0.0 3.2 0.13 0.33 0.15 100 1015.1
20260903191749 30 271 0.0 3.2 0.13 0.33 0.15 100 1015.1
20260903191604 30 261 0.0 4.8 0.13 0.33 0.15 100 1015.2
20260903191249 30 261 0.0 4.8 0.13 0.33 0.15 100 1015.2
20260903191123 29 222 0.0 0.0 0.13 0.33 0.15 100 1015.2
20260903190749 29 222 0.0 0.0 0.13 0.33 0.15 100 1015.2
20260903190447 29 222 0.0 3.2 0.13 0.33 0.15 100 1015.3
20260903190249 29 222 0.0 3.2 0.13 0.33 0.15 100 1015.3
20260903190124 28 272 1.6 6.4 0.13 0.33 0.15 100 1015.5
20260903185749 28 272 1.6 6.4 0.13 0.33 0.15 100 1015.5
20260903185612 28 212 1.6 6.4 0.13 0.33 0.15 100 1015.7
20260903185249 28 212 1.6 6.4 0.13 0.33 0.15 100 1015.7
20260903185014 28 189 3.2 12.9 0.13 0.33 0.15 100 1015.7
20260903184749 28 189 3.2 12.9 0.13 0.33 0.15 100 1015.7
20260903184552 28 212 3.2 16.1 0.10 0.30 0.13 100 1015.6
20260903184513 28 212 3.2 16.1 0.10 0.30 0.13 100 1015.6
20260903184249 28 212 3.2 16.1 0.10 0.30 0.13 100 1015.6
20260903183958 28 175 8.0 20.9 0.03 0.23 0.05 100 1015.7
20260903183749 28 175 8.0 20.9 0.03 0.23 0.05 100 1015.7
20260903183249 28 154 9.7 22.5 0.03 0.23 0.05 100 1016.0
20260903182749 28 210 12.9 22.5 0.00 0.20 0.03 100 1015.9
20260903182533 28 184 8.0 30.6 0.00 0.20 0.03 100 1015.8
20260903182249 28 184 8.0 30.6 0.00 0.20 0.03 100 1015.8
20260903181749 31 185 3.2 32.2 0.00 0.20 0.03 100 1015.6
20260903181533 32 233 14.5 17.7 0.00 0.20 0.03 100 1015.6
20260903181249 32 233 14.5 17.7 0.00 0.20 0.03 100 1015.6
20260903180749 33 243 9.7 14.5 0.00 0.20 0.03 100 1015.4
20260903180534 33 246 9.7 12.9 0.00 0.20 0.03 100 1015.5
20260903180503 33 246 9.7 12.9 0.00 0.20 0.03 100 1015.5
20260903180249 33 246 9.7 12.9 0.00 0.20 0.03 100 1015.5
20260903180042 34 240 8.0 12.9 0.00 0.20 0.03 100 1015.6
20260903175749 34 240 8.0 12.9 0.00 0.20 0.03 100 1015.6
20260903175249 35 157 1.6 6.4 0.00 0.20 0.03 100 1015.5
20260903174749 38 172 3.2 4.8 0.00 0.20 0.03 100 1015.5
20260903174521 43 181 4.8 8.0 0.00 0.20 0.03 100 1015.5
20260903174249 43 181 4.8 8.0 0.00 0.20 0.03 100 1015.5
20260903173930 45 111 3.2 4.8 0.00 0.20 0.03 100 1015.5
20260903173749 45 111 3.2 4.8 0.00 0.20 0.03 100 1015.5
20260903173535 36 90 0.0 9.7 0.00 0.20 0.03 100 1015.6
20260903173249 36 90 0.0 9.7 0.00 0.20 0.03 100 1015.6
20260903173055 40 154 4.8 11.3 0.00 0.20 0.03 100 1015.6
20260903172749 40 154 4.8 11.3 0.00 0.20 0.03 100 1015.6
20260903172616 47 143 4.8 9.7 0.00 0.20 0.03 100 1015.6
20260903172249 47 143 4.8 9.7 0.00 0.20 0.03 100 1015.6
20260903171749 41 99 0.0 9.7 0.00 0.20 0.03 100 1015.6
20260903171456 47 92 3.2 8.0 0.00 0.20 0.03 100 1015.6
20260903171249 47 92 3.2 8.0 0.00 0.20 0.03 100 1015.6
20260903170749 43 74 3.2 9.7 0.00 0.20 0.03 100 1015.7
20260903170554 42 222 8.0 12.9 0.00 0.20 0.03 100 1015.7
20260903170249 42 222 8.0 12.9 0.00 0.20 0.03 100 1015.7
20260903170036 48 260 4.8 12.9 0.00 0.20 0.03 100 1015.9
20260903165749 48 260 4.8 12.9 0.00 0.20 0.03 100 1015.9
20260903165249 49 192 11.3 11.3 0.00 0.20 0.03 100 1015.9
20260903165010 50 255 4.8 9.7 0.00 0.20 0.03 100 1016.0
20260903164749 50 255 4.8 9.7 0.00 0.20 0.03 100 1016.0
20260903164556 47 247 3.2 12.9 0.00 0.20 0.03 100 1016.1
20260903164249 47 247 3.2 12.9 0.00 0.20 0.03 100 1016.1
20260903164114 48 187 11.3 11.3 0.00 0.20 0.03 100 1016.2
20260903164019 48 187 11.3 11.3 0.00 0.20 0.03 100 1016.2
20260903163749 48 187 11.3 11.3 0.00 0.20 0.03 100 1016.2
20260903163522 46 199 1.6 11.3 0.00 0.20 0.03 100 1016.3
20260903163249 46 199 1.6 11.3 0.00 0.20 0.03 100 1016.3
20260903163039 46 233 1.6 11.3 0.00 0.20 0.03 100 1016.4
20260903162749 46 233 1.6 11.3 0.00 0.20 0.03 100 1016.4
20260903162507 45 239 8.0 14.5 0.00 0.20 0.03 100 1016.3
20260903162249 45 239 8.0 14.5 0.00 0.20 0.03 100 1016.3
20260903162037 46 130 3.2 6.4 0.00 0.20 0.03 100 1016.3
20260903161750 46 130 3.2 6.4 0.00 0.20 0.03 100 1016.3
20260903161523 45 233 4.8 11.3 0.00 0.20 0.03 100 1016.4
20260903161249 45 233 4.8 11.3 0.00 0.20 0.03 100 1016.4
20260903160749 43 223 9.7 11.3 0.00 0.20 0.03 100 1016.4
20260903160250 42 206 0.0 8.0 0.00 0.20 0.03 100 1016.4
20260903160120 40 133 3.2 9.7 0.00 0.20 0.03 100 1016.5
20260903155750 40 133 3.2 9.7 0.00 0.20 0.03 100 1016.5
20260903155250 42 168 1.6 8.0 0.00 0.20 0.03 100 1016.5
20260903155108 40 127 4.8 9.7 0.00 0.20 0.03 100 1016.6
20260903154750 40 127 4.8 9.7 0.00 0.20 0.03 100 1016.6
20260903154250 38 77 3.2 12.9 0.00 0.20 0.03 100 1016.6
20260903154122 36 87 8.0 11.3 0.00 0.20 0.03 100 1016.7
20260903153750 36 87 8.0 11.3 0.00 0.20 0.03 100 1016.7
20260903153250 37 108 9.7 12.9 0.00 0.20 0.03 100 1016.7
20260903153034 33 127 3.2 11.3 0.00 0.20 0.03 100 1016.8
20260903152750 33 127 3.2 11.3 0.00 0.20 0.03 100 1016.8
20260903152250 36 118 6.4 11.3 0.00 0.20 0.03 100 1016.8
20260903151750 35 108 9.7 12.9 0.00 0.20 0.03 100 1016.8
20260903151516 34 153 3.2 11.3 0.00 0.20 0.03 100 1016.8
20260903151250 34 153 3.2 11.3 0.00 0.20 0.03 100 1016.8
20260903151034 33 163 11.3 11.3 0.00 0.20 0.03 100 1016.8
20260903150750 33 163 11.3 11.3 0.00 0.20 0.03 100 1016.8
20260903150250 32 84 4.8 9.7 0.00 0.46 0.03 100 1016.8
20260903145750 32 104 8.0 11.3 0.00 0.46 0.03 100 1016.7
20260903145636 32 104 9.7 11.3 0.00 0.46 0.03 100 1016.7
20260903145250 32 104 9.7 11.3 0.00 0.46 0.03 100 1016.7
20260903144750 32 130 3.2 6.4 0.00 0.46 0.03 100 1016.6
20260903144652 31 158 6.4 12.9 0.00 0.46 0.03 100 1016.5
20260903144250 31 158 6.4 12.9 0.00 0.46 0.03 100 1016.5
20260903143750 31 150 4.8 11.3 0.00 0.46 0.03 100 1016.4
20260903143250 30 192 6.4 9.7 0.00 0.46 0.03 100 1016.3
20260903143104 29 171 1.6 9.7 0.00 0.46 0.03 100 1016.4
20260903142750 29 171 1.6 9.7 0.00 0.46 0.03 100 1016.4
20260903142250 29 136 3.2 8.0 0.00 0.46 0.03 100 1016.5
20260903141750 31 143 1.6 8.0 0.00 0.46 0.03 100 1016.5
20260903141250 31 153 4.8 6.4 0.00 0.46 0.03 100 1016.5
20260903141131 30 139 3.2 11.3 0.00 0.46 0.03 100 1016.5
20260903140750 30 139 3.2 11.3 0.00 0.46 0.03 100 1016.5
20260903140609 32 157 6.4 12.9 0.00 0.46 0.03 100 1016.5
20260903140250 32 157 6.4 12.9 0.00 0.46 0.03 100 1016.5
20260903140106 30 98 1.6 9.7 0.00 0.46 0.03 100 1016.4
20260903135750 30 98 1.6 9.7 0.00 0.46 0.03 100 1016.4
20260903135514 30 164 4.8 9.7 0.00 0.46 0.03 100 1016.4
20260903135250 30 164 4.8 9.7 0.00 0.46 0.03 100 1016.4
20260903135009 31 187 6.4 11.3 0.00 0.46 0.03 100 1016.4
20260903134750 31 187 6.4 11.3 0.00 0.46 0.03 100 1016.4
20260903134250 30 172 8.0 9.7 0.00 0.46 0.03 100 1016.4
20260903134124 28 182 8.0 9.7 0.00 0.46 0.03 100 1016.5
20260903133750 28 182 8.0 9.7 0.00 0.46 0.03 100 1016.5
20260903133550 30 102 3.2 9.7 0.00 0.46 0.03 100 1016.5
20260903133250 30 102 3.2 9.7 0.00 0.46 0.03 100 1016.5
20260903133051 28 165 8.0 9.7 0.00 0.46 0.03 100 1016.5
20260903132828 28 165 8.0 9.7 0.00 0.46 0.03 100 1016.5
20260903132750 28 165 8.0 9.7 0.00 0.46 0.03 100 1016.5
20260903132617 28 164 1.6 8.0 0.00 0.46 0.03 100 1016.5
20260903132250 28 164 1.6 8.0 0.00 0.46 0.03 100 1016.5
20260903132121 28 143 3.2 8.0 0.00 0.46 0.03 100 1016.4
20260903131750 28 143 3.2 8.0 0.00 0.46 0.03 100 1016.4
20260903131528 28 168 8.0 8.0 0.00 0.46 0.03 100 1016.4
20260903131250 28 168 8.0 8.0 0.00 0.46 0.03 100 1016.4
20260903130750 28 102 3.2 9.7 0.03 0.46 0.03 100 1016.3
20260903130527 28 143 4.8 9.7 0.03 0.46 0.03 100 1016.3
20260903130250 28 143 4.8 9.7 0.03 0.46 0.03 100 1016.3
20260903125750 28 95 9.7 9.7 0.03 0.46 0.03 100 1016.3
20260903125250 28 91 4.8 8.0 0.03 0.46 0.03 100 1016.2
20260903125049 27 154 4.8 9.7 0.03 0.46 0.03 100 1016.1
20260903124750 27 154 4.8 9.7 0.03 0.46 0.03 100 1016.1
20260903124535 26 97 6.4 11.3 0.03 0.46 0.03 100 1016.2
20260903124250 26 97 6.4 11.3 0.03 0.46 0.03 100 1016.2
20260903124028 26 97 1.6 8.0 0.03 0.46 0.03 100 1016.1
20260903123750 26 97 1.6 8.0 0.03 0.46 0.03 100 1016.1
20260903123250 26 80 1.6 6.4 0.03 0.46 0.03 100 1016.1
20260903123004 25 144 4.8 9.7 0.03 0.46 0.03 100 1016.1
20260903122750 25 144 4.8 9.7 0.03 0.46 0.03 100 1016.1
20260903122616 25 133 1.6 4.8 0.03 0.46 0.03 100 1016.1
20260903122250 25 133 1.6 4.8 0.03 0.46 0.03 100 1016.1
20260903121750 25 56 0.0 0.0 0.03 0.46 0.03 100 1015.9
20260903121250 25 56 0.0 0.0 0.03 0.46 0.03 100 1015.9
20260903120751 25 56 0.0 0.0 0.00 0.43 0.00 100 1015.9
20260903120506 25 56 0.0 0.0 0.00 0.43 0.00 100 1015.8
20260903120251 25 56 0.0 0.0 0.00 0.43 0.00 100 1015.8
20260903115751 25 56 0.0 0.0 0.00 0.43 0.00 100 1015.6
20260903115251 25 56 0.0 0.0 0.00 0.43 0.00 100 1015.6
20260903115033 25 56 0.0 0.0 0.00 0.43 0.00 100 1015.5
20260903114751 25 56 0.0 0.0 0.00 0.43 0.00 100 1015.5
20260903114543 25 56 0.0 0.0 0.00 0.43 0.00 100 1015.3
20260903114251 25 56 0.0 0.0 0.00 0.43 0.00 100 1015.3
20260903113751 25 56 0.0 0.0 0.00 0.43 0.00 100 1015.3
20260903113251 24 56 0.0 0.0 0.00 0.43 0.00 100 1015.2
20260903113012 24 56 0.0 0.0 0.00 0.43 0.00 100 1015.0
20260903112751 24 56 0.0 0.0 0.00 0.43 0.00 100 1015.0
20260903112613 24 56 0.0 0.0 0.00 0.43 0.00 100 1015.2
20260903112251 24 56 0.0 0.0 0.00 0.43 0.00 100 1015.2
20260903112123 24 56 0.0 0.0 0.00 0.43 0.00 100 1015.2
20260903111751 24 56 0.0 0.0 0.00 0.43 0.00 100 1015.2
20260903111539 24 56 0.0 0.0 0.00 0.43 0.00 100 1015.1
20260903111251 24 56 0.0 0.0 0.00 0.43 0.00 100 1015.1
20260903110751 24 56 0.0 0.0 0.00 0.43 0.00 100 1015.1
20260903110251 24 56 0.0 0.0 0.00 0.43 0.00 100 1015.2
20260903110010 24 56 0.0 0.0 0.00 0.43 0.00 100 1015.2
20260903105751 24 56 0.0 0.0 0.00 0.43 0.00 100 1015.2
20260903105251 24 56 0.0 0.0 0.00 0.43 0.00 100 1015.2
20260903104751 24 56 0.0 0.0 0.00 0.43 0.00 100 1015.1
20260903104552 25 56 0.0 0.0 0.00 0.43 0.00 100 1015.0
20260903104251 25 56 0.0 0.0 0.00 0.43 0.00 100 1015.0
20260903104139 25 56 0.0 0.0 0.00 0.43 0.00 100 1014.9
20260903103751 25 56 0.0 0.0 0.00 0.43 0.00 100 1014.9
20260903103251 25 56 0.0 0.0 0.00 0.43 0.00 100 1014.9
20260903103036 25 56 0.0 0.0 0.00 0.43 0.00 100 1015.0
20260903102751 25 56 0.0 0.0 0.00 0.43 0.00 100 1015.0
20260903102251 25 56 0.0 0.0 0.00 0.43 0.00 100 1015.0
20260903101751 25 56 0.0 0.0 0.00 0.43 0.00 100 1014.9
20260903101534 25 56 0.0 0.0 0.00 0.43 0.00 100 1014.9
20260903101251 25 56 0.0 0.0 0.00 0.43 0.00 100 1014.9
20260903100751 25 56 0.0 0.0 0.00 0.43 0.00 100 1014.9
20260903100251 25 56 0.0 0.0 0.00 0.46 0.00 100 1014.7
20260903095751 25 56 0.0 0.0 0.00 0.46 0.00 100 1014.7
20260903095451 25 68 0.0 0.0 0.00 0.46 0.00 100 1014.9
20260903095251 25 56 0.0 0.0 0.00 0.46 0.00 100 1014.7
20260903094751 25 56 0.0 0.0 0.00 0.46 0.00 100 1014.5
20260903094251 25 56 0.0 0.0 0.00 0.46 0.00 100 1014.4
20260903093751 25 56 0.0 0.0 0.00 0.46 0.00 100 1014.2
20260903093251 25 56 0.0 0.0 0.00 0.46 0.00 100 1014.2
20260903093201 25 56 0.0 0.0 0.00 0.46 0.00 100 1014.1
20260903093040 25 56 0.0 0.0 0.00 0.46 0.00 100 1014.1
20260903092751 25 56 0.0 0.0 0.00 0.46 0.00 100 1014.1
20260903092647 25 56 0.0 0.0 0.00 0.46 0.00 100 1014.1
20260903092251 25 56 0.0 0.0 0.00 0.46 0.00 100 1014.1
20260903091751 25 56 0.0 0.0 0.00 0.46 0.00 100 1014.1
20260903091251 25 56 0.0 3.2 0.00 0.46 0.00 100 1014.1
20260903090751 25 28 0.0 0.0 0.00 0.46 0.00 100 1014.1
20260903090251 25 28 0.0 0.0 0.00 0.46 0.00 100 1014.2
20260903085751 25 28 0.0 0.0 0.00 0.46 0.00 100 1014.1
20260903085538 25 28 0.0 0.0 0.00 0.46 0.00 100 1014.1
20260903085251 25 28 0.0 0.0 0.00 0.46 0.00 100 1014.1
20260903085105 25 28 0.0 0.0 0.00 0.46 0.00 100 1014.1
20260903084751 25 28 0.0 0.0 0.00 0.46 0.00 100 1014.1
20260903084251 25 28 0.0 0.0 0.00 0.46 0.00 100 1014.0
20260903083954 25 28 0.0 0.0 0.00 0.46 0.00 100 1014.0
20260903083751 25 28 0.0 0.0 0.00 0.46 0.00 100 1014.0
20260903083251 25 28 0.0 0.0 0.00 0.46 0.00 100 1013.9
20260903083037 25 28 0.0 0.0 0.00 0.46 0.00 100 1014.0
20260903082751 25 28 0.0 0.0 0.00 0.46 0.00 100 1014.0
20260903082536 25 28 0.0 0.0 0.00 0.46 0.00 100 1014.0
20260903082251 25 28 0.0 0.0 0.00 0.46 0.00 100 1014.0
20260903081751 25 28 0.0 0.0 0.00 0.46 0.00 100 1014.0
20260903081551 25 28 0.0 0.0 0.00 0.46 0.00 100 1014.0
20260903081251 25 28 0.0 0.0 0.00 0.46 0.00 100 1014.0
20260903080752 25 28 0.0 0.0 0.00 0.46 0.00 100 1014.1
20260903080252 25 28 0.0 0.0 0.00 0.46 0.00 100 1014.1
20260903080037 25 28 0.0 0.0 0.00 0.46 0.00 100 1014.2
20260903075752 25 28 0.0 0.0 0.00 0.46 0.00 100 1014.2
20260903075252 25 28 0.0 0.0 0.00 0.46 0.00 100 1014.3
20260903074752 25 28 0.0 0.0 0.00 0.46 0.00 100 1014.3
20260903074252 25 28 0.0 0.0 0.00 0.46 0.00 100 1014.4
20260903073952 25 28 0.0 0.0 0.00 0.46 0.00 100 1014.4
20260903073752 25 28 0.0 0.0 0.00 0.46 0.00 100 1014.4
20260903073252 25 28 0.0 0.0 0.00 0.46 0.00 100 1014.4
20260903073049 25 28 0.0 4.8 0.00 0.46 0.00 100 1014.5
20260903072752 25 28 0.0 4.8 0.00 0.46 0.00 100 1014.5
20260903072252 25 351 1.6 3.2 0.00 0.46 0.00 100 1014.5
20260903072109 25 40 0.0 0.0 0.00 0.46 0.00 100 1014.5
20260903071752 25 40 0.0 0.0 0.00 0.46 0.00 100 1014.5
20260903071252 25 40 0.0 3.2 0.00 0.46 0.00 100 1014.4
20260903071012 25 53 1.6 6.4 0.00 0.46 0.00 100 1014.3
20260903070752 25 53 1.6 6.4 0.00 0.46 0.00 100 1014.3
20260903070252 25 59 0.0 4.8 0.00 0.46 0.00 100 1014.5
20260903070037 25 56 1.6 3.2 0.00 0.46 0.00 100 1014.7
20260903065752 25 56 1.6 3.2 0.00 0.46 0.00 100 1014.7
20260903065616 25 68 0.0 0.0 0.00 0.46 0.00 100 1014.9
20260903065252 25 68 0.0 0.0 0.00 0.46 0.00 100 1014.9
20260903064752 25 68 0.0 0.0 0.00 0.46 0.00 100 1014.9
20260903064252 25 68 0.0 0.0 0.00 0.46 0.00 100 1015.0
20260903063956 25 68 0.0 0.0 0.00 0.46 0.00 100 1014.9
20260903063752 25 68 0.0 0.0 0.00 0.46 0.00 100 1014.9
20260903063458 25 68 0.0 0.0 0.00 0.46 0.00 100 1014.9
20260903063252 25 68 0.0 0.0 0.00 0.46 0.00 100 1014.9
20260903062752 25 68 0.0 0.0 0.00 0.46 0.00 100 1015.0
20260903062536 25 68 0.0 0.0 0.00 0.46 0.00 100 1015.1
20260903062252 25 68 0.0 0.0 0.00 0.46 0.00 100 1015.1
20260903061752 25 68 0.0 3.2 0.00 0.46 0.00 100 1015.1
20260903061618 25 149 1.6 3.2 0.00 0.46 0.00 100 1015.1
20260903061252 25 149 1.6 3.2 0.00 0.46 0.00 100 1015.1
20260903060752 25 108 0.0 4.8 0.00 0.46 0.00 100 1015.1
20260903060252 25 112 0.0 0.0 0.00 0.46 0.00 100 1015.1
20260903060143 25 112 0.0 0.0 0.00 0.46 0.00 100 1015.0
20260903060048 25 112 0.0 0.0 0.00 0.46 0.00 100 1015.0
20260903055752 25 112 0.0 0.0 0.00 0.46 0.00 100 1015.0
20260903055713 25 112 0.0 0.0 0.00 0.46 0.00 100 1015.0
20260903055252 25 112 0.0 0.0 0.00 0.46 0.00 100 1015.0
20260903054956 25 112 0.0 0.0 0.00 0.46 0.00 100 1015.0
20260903054752 25 112 0.0 0.0 0.00 0.46 0.00 100 1015.0
20260903054736 22 56 0.0 0.0 0.00 2.24 0.00 100 1017.0
20260903054546 25 112 0.0 3.2 0.00 0.46 0.00 100 1015.0
20260903054252 25 112 0.0 3.2 0.00 0.46 0.00 100 1015.0
20260903053752 25 120 1.6 4.8 0.00 0.46 0.00 100 1015.0
20260903053624 25 81 0.0 0.0 0.00 0.46 0.00 100 1015.0
20260903053252 25 81 0.0 0.0 0.00 0.46 0.00 100 1015.0
20260903053043 25 81 0.0 0.0 0.00 0.46 0.00 100 1015.1
20260903052752 25 81 0.0 0.0 0.00 0.46 0.00 100 1015.1
20260903052252 25 81 0.0 4.8 0.00 0.46 0.00 100 1015.1
20260903052101 25 73 0.0 4.8 0.00 0.46 0.00 100 1015.3
20260903051752 25 73 0.0 4.8 0.00 0.46 0.00 100 1015.3
20260903051252 25 70 1.6 6.4 0.03 0.46 0.00 100 1015.4
20260903050752 25 47 0.0 3.2 0.03 0.46 0.00 100 1015.4
20260903050252 25 71 0.0 6.4 0.03 0.46 0.00 100 1015.4
20260903045752 25 109 4.8 6.4 0.03 0.46 0.00 100 1015.5
20260903045713 25 63 0.0 6.4 0.03 0.46 0.46 100 1015.6
20260903045628 25 63 0.0 6.4 0.03 0.46 0.46 100 1015.6
20260903045252 25 63 0.0 6.4 0.03 0.46 0.46 100 1015.6
20260903044752 25 98 3.2 6.4 0.03 0.46 0.46 100 1015.6
20260903044252 25 61 0.0 9.7 0.05 0.46 0.46 100 1015.7
20260903043752 25 78 4.8 8.0 0.05 0.46 0.46 100 1015.7
20260903043622 25 88 4.8 6.4 0.08 0.46 0.46 100 1015.9
20260903043253 25 88 4.8 6.4 0.08 0.46 0.46 100 1015.9
20260903042752 25 92 3.2 3.2 0.08 0.46 0.46 100 1015.9
20260903042614 26 216 0.0 1.6 0.08 0.46 0.46 100 1016.0
20260903042252 26 216 0.0 1.6 0.08 0.46 0.46 100 1016.0
20260903042023 25 217 0.0 4.8 0.08 0.46 0.46 100 1016.1
20260903041752 25 217 0.0 4.8 0.08 0.46 0.46 100 1016.1
20260903041252 26 33 0.0 0.0 0.08 0.43 0.43 100 1016.2
20260903041152 26 33 0.0 3.2 0.08 0.43 0.43 100 1016.2
20260903040753 26 33 0.0 3.2 0.08 0.43 0.43 100 1016.2
20260903040607 25 15 1.6 8.0 0.08 0.43 0.43 100 1016.2
20260903040253 25 15 1.6 8.0 0.08 0.43 0.43 100 1016.2
20260903040139 25 30 0.0 6.4 0.08 0.43 0.43 100 1016.3
20260903035753 25 30 0.0 6.4 0.08 0.43 0.43 100 1016.3
20260903035253 25 67 0.0 9.7 0.08 0.43 0.43 100 1016.2
20260903035153 25 80 6.4 8.0 0.08 0.43 0.43 100 1016.2
20260903034753 25 80 6.4 8.0 0.08 0.43 0.43 100 1016.2
20260903034253 25 95 1.6 8.0 0.08 0.41 0.41 100 1016.3
20260903034121 25 82 6.4 8.0 0.08 0.41 0.41 100 1016.3
20260903033753 25 82 6.4 8.0 0.08 0.41 0.41 100 1016.3
20260903033253 26 77 3.2 8.0 0.05 0.38 0.38 100 1016.4
20260903032753 25 61 6.4 8.0 0.05 0.38 0.38 100 1016.3
20260903032253 26 60 0.0 4.8 0.05 0.38 0.38 100 1016.3
20260903031753 26 29 1.6 3.2 0.05 0.38 0.38 100 1016.3
20260903031253 26 338 0.0 4.8 0.03 0.36 0.36 100 1016.3
20260903031113 26 29 0.0 0.0 0.03 0.36 0.36 100 1016.3
20260903030753 26 29 0.0 0.0 0.03 0.36 0.36 100 1016.3
20260903030253 26 29 0.0 0.0 0.03 0.36 0.36 100 1016.4
20260903025753 26 29 0.0 0.0 0.03 0.36 0.36 100 1016.5
20260903025253 26 29 0.0 0.0 0.03 0.36 0.36 100 1016.6
20260903024753 25 29 0.0 0.0 0.03 0.36 0.36 100 1016.6